Laramie, WY

6:44 PM MST on February 09, 2016 (GMT -0700)
Laramie Regional

Weather History for KLAR - September, 2012

Change the Weather History Date:

Wednesday, September 26, 2012

  Actual Average Record
Temperature  
Mean Temperature 52 °F 49 °F  
Max Temperature 59 °F 64 °F 83 °F (2010)
Min Temperature 44 °F 34 °F 16 °F (1984)
Degree Days  
Heating Degree Days 13 16  
Month to date heating degree days 224 285  
Since 1 July heating degree days 281 457  
Cooling Degree Days 0 0  
Month to date cooling degree days 0 0  
Year to date cooling degree days 211 66  
Moisture  
Dew Point 44 °F    
Average Humidity 79    
Maximum Humidity 100    
Minimum Humidity 57    
Precipitation  
Precipitation 0.15 in 0.04 in 0.15 in (2012)
Month to date precipitation 0.46 0.98  
Year to date precipitation 4.88 9.13  
Sea Level Pressure  
Sea Level Pressure 30.06 in    
Wind  
Wind Speed 7 mph (SE)    
Max Wind Speed 21 mph    
Max Gust Speed 24 mph    
Visibility 9 miles    
Events Rain    
T = Trace of Precipitation, MM = Missing Value Source: NWS Daily Summary

Daily Weather History Graph

Daily Weather History Graph

Search for Another Location

Airport or City:

Trip Planner

Search our weather history database for the weather conditions in past years. The results will help you decide how hot, cold, wet, or windy it might be!

Date:

Astronomy

Sep. 26, 2012 Rise Set
Actual Time 6:54 AM MDT 6:52 PM MDT
Civil Twilight 6:27 AM MDT 7:19 PM MDT
Nautical Twilight 5:55 AM MDT 7:51 PM MDT
Astronomical Twilight 5:22 AM MDT 8:24 PM MDT
Moon 4:54 PM MDT (9/26) 3:21 AM MDT (9/26)
Length of Visible Light 12h 52m
Length of Day
11h 57m
Waxing Gibbous, 88% of the Moon is Illuminated
Sep 26
Waxing Gibbous
Sep 29
Full
Oct 8
Last Quarter
Oct 15
New
Oct 21
First Quarter

Hourly Weather History & Observations

Time (MDT) Temp. Windchill Dew Point Humidity Pressure Visibility Wind Dir Wind Speed Gust Speed Precip Events Conditions
12:53 AM 45.0 °F 43.5 °F 44.1 °F 97% 29.91 in 10.0 mi SE 3.5 mph - N/A   Mostly Cloudy
1:53 AM 44.1 °F - 43.0 °F 96% 29.89 in 10.0 mi Calm Calm - N/A   Mostly Cloudy
2:53 AM 44.1 °F 42.5 °F 43.0 °F 96% 29.93 in 10.0 mi ENE 3.5 mph - N/A   Overcast
3:53 AM 45.0 °F 43.5 °F 43.0 °F 93% 29.97 in 10.0 mi East 3.5 mph - N/A   Overcast
4:53 AM 45.0 °F - 44.1 °F 97% 29.96 in 10.0 mi Calm Calm - N/A   Overcast
5:53 AM 46.4 °F 45.2 °F 42.8 °F 87% 30.16 in 10.0 mi NE 3.5 mph - N/A   Overcast
6:53 AM 46.0 °F - 44.1 °F 93% 29.99 in 10.0 mi Calm Calm - N/A   Overcast
7:22 AM 46.4 °F 44.3 °F 44.6 °F 93% 30.18 in 10.0 mi SSW 4.6 mph - N/A   Overcast
7:53 AM 46.0 °F - 44.1 °F 93% 30.01 in 2.5 mi Calm Calm - 0.03 in Rain Rain
7:57 AM 46.4 °F - 44.6 °F 93% 30.18 in 3.0 mi Calm Calm - 0.00 in Rain Light Rain
8:53 AM 46.9 °F - 44.1 °F 90% 30.02 in 10.0 mi ESE 4.6 mph - 0.01 in Rain Light Rain
9:53 AM 48.0 °F - 45.0 °F 89% 30.03 in 4.0 mi East 6.9 mph - 0.02 in Rain Light Rain
10:01 AM 46.4 °F 43.5 °F 44.6 °F 93% 30.21 in 3.0 mi East 5.8 mph - 0.01 in Rain Light Rain
10:53 AM 48.0 °F - 44.1 °F 86% 30.04 in 6.0 mi ESE 5.8 mph - 0.09 in Rain Rain
11:06 AM 48.2 °F - 44.6 °F 87% 30.21 in 10.0 mi SE 5.8 mph - 0.00 in Rain Light Rain
11:53 AM 50.0 °F - 46.0 °F 86% 30.03 in 10.0 mi SSE 16.1 mph 21.9 mph 0.00 in   Overcast
12:53 PM 51.1 °F - 46.0 °F 83% 30.03 in 8.0 mi SSE 15.0 mph - 0.00 in Rain Light Rain
1:29 PM 53.6 °F - 44.6 °F 72% 30.20 in 10.0 mi SE 15.0 mph - 0.00 in   Mostly Cloudy
1:51 PM 53.6 °F - 44.6 °F 72% 30.20 in 10.0 mi South 12.7 mph - 0.00 in   Mostly Cloudy
1:53 PM 52.0 °F - 44.1 °F 74% 30.02 in 10.0 mi SSW 12.7 mph - 0.00 in   Overcast
2:28 PM 55.4 °F - 42.8 °F 63% 30.20 in 10.0 mi Variable 6.9 mph - N/A   Overcast
2:53 PM 55.9 °F - 41.0 °F 57% 30.00 in 10.0 mi SSW 6.9 mph - N/A   Partly Cloudy
3:53 PM 57.2 °F - 42.8 °F 59% 30.19 in 10.0 mi South 12.7 mph 17.3 mph N/A   Mostly Cloudy
4:53 PM 51.1 °F - 43.0 °F 74% 30.03 in 10.0 mi SSE 13.8 mph - N/A   Mostly Cloudy
5:53 PM 48.0 °F - 44.1 °F 86% 30.04 in 10.0 mi SE 9.2 mph - 0.00 in   Mostly Cloudy
6:53 PM 48.9 °F - 45.0 °F 86% 30.04 in 10.0 mi SE 4.6 mph - N/A   Mostly Cloudy
7:53 PM 48.9 °F - 46.0 °F 90% 30.05 in 10.0 mi SSE 6.9 mph - N/A   Clear
8:53 PM 46.9 °F - 43.0 °F 86% 30.07 in 10.0 mi South 5.8 mph - N/A   Clear
9:53 PM 46.0 °F 40.6 °F 42.1 °F 86% 30.07 in 10.0 mi South 11.5 mph - N/A   Clear
10:53 PM 46.0 °F 39.3 °F 43.0 °F 89% 30.07 in 10.0 mi SSE 16.1 mph - N/A   Clear
11:53 PM 46.0 °F 41.4 °F 43.0 °F 89% 30.07 in 10.0 mi South 9.2 mph - N/A   Overcast